Flag for Canada Weather past 2 weeks in Abbotsford, British Columbia, Canada

Now
63 °F

Passing clouds.


Feels Like: 63 °F
Forecast: 57 / 88 °F
Wind: 5 mph from North

Location: Abbotsford

Current Time: Jul 30, 2015 at 7:29:59 AM

Latest Report: Jul 30, 2015 at 7:00 AM


Visibility: 30 mi

Pressure: 30.12 "Hg

Humidity: 68%

Dew point: 52 °F

Location of AbbotsfordLocation

Historic Weather in Abbotsford — Graph

°F

Abbotsford temperature yesterday

Maximum temperature yesterday: 86 °F (at 3:00 PM)
Minimum temperature yesterday: 55 °F (at 6:00 AM)
Average temperature yesterday: 71 °F

Past Weeks' High & Low Weather Summary

 TemperatureHumidityPressure
High91 °F (Jul 18, 3:00 PM)100% (Jul 24, 8:00 PM)30.29 "Hg (Jul 24, 8:00 PM)
Low39 °F (Jul 17, 8:00 AM)20% (Jul 29, 7:00 PM)29.87 "Hg (Jul 22, 8:00 PM)
Average67 °F67%30.04 "Hg
* Reported Jul 15 6:00 AM — Jul 30 6:00 AM, Abbotsford, Weather by CustomWeather, © 2015

Note: Actual official high and low records may vary slightly from our data, if they occured in-between our weather recording intervals... More about our weather records

Advertising

Abbotsford weather history for previous 24 hours

 ConditionsComfort  
Time TempWeatherWind HumidityBarometerVisibility
6:00 AM
Thu, Jul 30
57 °FPassing clouds.No wind82%30.12 "Hg30 mi
5:00 AM59 °FClear.No wind77%30.11 "Hg10 mi
4:00 AM61 °FClear.3 mph72%30.10 "Hg10 mi
3:00 AM63 °FClear.3 mph68%30.10 "Hg10 mi
2:00 AM63 °FClear.3 mph77%30.11 "Hg10 mi
1:00 AM63 °FClear.2 mph77%30.11 "Hg10 mi
12:00 AM64 °FClear.3 mph78%30.11 "Hg10 mi
11:00 PM
Wed, Jul 29
66 °FClear.No wind73%30.11 "Hg10 mi
10:00 PM68 °FClear.5 mph69%30.10 "Hg10 mi
9:00 PM75 °FSunny.2 mph50%30.09 "Hg30 mi
8:00 PM82 °FPassing clouds.7 mph32%30.09 "Hg30 mi
7:00 PM86 °FPassing clouds.3 mph20%30.09 "Hg30 mi
6:00 PM86 °FPassing clouds.5 mph24%30.11 "Hg30 mi
5:00 PM86 °FPassing clouds.8 mph27%30.12 "Hg30 mi
4:00 PM86 °FPassing clouds.8 mph29%30.14 "Hg30 mi
3:00 PM86 °FPassing clouds.8 mph33%30.15 "Hg30 mi
2:00 PM82 °FPassing clouds.5 mph37%30.16 "Hg30 mi
1:00 PM81 °FPassing clouds.No wind42%30.16 "Hg30 mi
12:00 PM77 °FPassing clouds.3 mph44%30.18 "Hg30 mi
11:00 AM75 °FPassing clouds.No wind50%30.19 "Hg30 mi
10:00 AM72 °FScattered clouds.No wind61%30.20 "Hg30 mi
9:00 AM66 °FScattered clouds.2 mph73%30.22 "Hg30 mi
8:00 AM63 °FBroken clouds.2 mph83%30.22 "Hg30 mi
7:00 AM59 °FBroken clouds.No wind94%30.21 "Hg30 mi
Weather by CustomWeather, © 2015

See weather overviewHow to use our weather pages